Regional Weather Roundup
Issued by NWS Jackson, KY

Home | Current Version | Previous Version | Graphics & Text | Print | Product List | Glossary On
Versions: 1 2 3 4 5 6 7 8 9 10 11 12 13 14 15 16 17 18 19 20 21 22 23 24 25 26 27 28 29 30 31 32 33 34 35 36 37 38 39 40 41 42 43 44 45 46 47 48 49 50
000
ASUS43 KJKL 270305
RWRJKL

EAST KENTUCKY HOURLY WEATHER ROUNDUP
NATIONAL WEATHER SERVICE JACKSON KY
1000 PM EST FRI DEC 26 2014

NOTE: "FAIR" INDICATES FEW OR NO CLOUDS BELOW 12,000 FEET WITH
NO SIGNIFICANT WEATHER AND/OR OBSTRUCTIONS TO VISIBILITY.

* THESE REPORTS ARE NOT UNDER NWS QUALITY CONTROL AND MAY NOT
  REPORT WEATHER SUCH AS PRECIPITATION AND FOG.

KYZ079-080-083-085-087-088-110-112-115-119-120-270400
...EASTERN KENTUCKY...

CITY           SKY/WX    TMP DP  RH WIND       PRES   REMARKS
JACKSON        CLOUDY    47  27  45 W6        30.22R
LONDON         CLOUDY    46  28  49 CALM      30.23R
SOMERSET*      CLOUDY    43  32  65 S3        30.25S
MONTICELLO*    CLOUDY    45  36  70 CALM      30.26R
MIDDLESBORO*   CLOUDY    41  35  79 CALM      30.25S
HARLAN APT*    CLOUDY    46  27  46 NE6       30.24R
BLACK MTN*       N/A     43   9  24 S9          N/A
PIKEVILLE APT* CLEAR     48  25  40 SE5       30.19F
BIG SANDY*     CLOUDY    47  29  49 CALM      30.20R
MOREHEAD APT*  MOCLDY    46  30  53 CALM      30.23R
$$

KYZ035-036-041-042-044-050-067-078-099-270400
...CENTRAL KENTUCKY...

CITY           SKY/WX    TMP DP  RH WIND       PRES   REMARKS
MT STERLING*   CLOUDY    43  32  65 SW3       30.22R
FLEMING/MASON* CLOUDY    44  33  65 S6        30.21S
DANVILLE*      MOCLDY    43  32  65 SW5       30.22S
RICHMOND*      MOCLDY    43  32  65 CALM      30.20F
LEXINGTON      CLOUDY    45  33  63 S8        30.19F
FRANKFORT      PTCLDY    47  32  56 S6        30.17F
$$

KYZ091>093-OHZ055-061-077-WVZ005-015-034-035-042-270400
...SOUTHERN OHIO/WEST VIRGINIA...

CITY           SKY/WX    TMP DP  RH WIND       PRES   REMARKS
COVINGTON      MOCLDY    44  32  62 S6        30.17S
COLUMBUS       MOCLDY    41  33  73 SE3       30.18S
DAYTON         MOCLDY    43  35  73 S7        30.16S
WILMINGTON     MOCLDY    41  33  73 S5        30.17S
HUNTINGTON     MOCLDY    41  33  73 CALM      30.21R
CHARLESTON     MOCLDY    39  34  82 E5        30.19F
PINEVILLE*     CLOUDY    35  35  99 MISG      30.28F
BECKLEY        MOCLDY    44  16  32 SE5       30.22F
BLUEFIELD      CLOUDY    48  12  23 SW3       30.25S
$$

VAZ002-007-008-TNZ017-027-036-066-071-270400
...SOUTHWEST VIRGINIA/EAST TENNESSEE...

CITY           SKY/WX    TMP DP  RH WIND       PRES   REMARKS
WISE*          CLOUDY    45  25  45 S9        30.23F
JONESVILLE*    CLOUDY    36  32  87 N5        30.27F WCI  32
ABINGDON*      MOCLDY    42  26  54 CALM      30.27R
BRISTOL        CLOUDY    38  32  79 NW3       30.27R
KNOXVILLE      MOCLDY    39  35  86 E3        30.23F
OAK RIDGE      MOCLDY    40  37  89 SW3       30.27S
CROSSVILLE     MOCLDY    43  32  65 CALM      30.25S
NASHVILLE      CLOUDY    47  38  71 SE7       30.22F
$$

...KEY TO REMARKS...
VSB - VISIBILITY IN MILES
WCI - WIND CHILL INDEX
HX  - HEAT INDEX

$$


USA.gov is the U.S. government's official web portal to all federal, state and local government web resources and services.